ATLAS CENTAUR 2 DEB, 739

Orbit data source: Space-Track

ATLAS CENTAUR 2 DEB, 739 is space debris in LEO originally from a launch on Wed, 27 Nov 1963 UTC launched from the Air Force Eastern Test Range (AFETR). Debris objects in space refer to the collection of defunct objects orbiting the Earth. Examples of debris include non-operational satellites, rocket bodies, and fragments generated from explosions, collisions, or faulty payload assembly.

Loading next visibility...
ATLAS CENTAUR 2 DEB details
Identifier
739, 1963-047H
Orbit
LEO
Last TLE update12 hours ago
Origin
Flag of USNASA LeRC (US)
ManufacturerGD/Convair
MissionSpacecraft
Bus & MotorCENTAUR PART, Unknown motor
MassUnknown
Launch date (UTC)
1963-11-27 (61 years ago)
Launch vehicleUnknown
Launch site
Air Force Eastern Test Range (AFETR)
Object type
Payload
Rocket body
Debris
Shape & HBRUnknown
Radar Cross Section0.290 m², Medium (>0.1 m² and < 1m²)

Expand to show TLE details & history

TLE from 12 hours ago
0 ATLAS CENTAUR 2 DEB
1   739U 63047H   25037.54520753  .00001783  00000-0  28271-3 0  9999
2   739  30.4220 225.6626 0638275 183.4670 176.1348 13.84581089 72681
Epoch: 2025-02-06T13:05Z
Definitive object data (Epoch: 2025-02-06T13:05:05.93Z)
Latitude0.00001°
Longitude-107.53234°
Altitude1,412.743 km
Speed6.925 km/s
True Right ascension15h 02m 39s
True Declination0° 00' 00"
Sunlit
Object was in daylight at TLE epoch
Visualization TLE readout
Latitude9.27598°
Longitude-94.18332°
Altitude1,403.601 km
Speed6.934 km/s
Apparent Right ascension15h 44m 43s
Apparent Declination-12° 40' 24"
Sunlit
Object is in daylight
Visualization observer readout
Local Sidereal Time03:26:58
Azimuth350.595° N
Elevation-62.478°
Doppler factor1
Orbital elements
Apogee altitude1,419.238 km
Perigee altitude483.585 km
Semi-major axis7,329.548 km
Eccentricity0.0638275
Inclination30.422°
RAAN225.6626°
Arg. of periapsis183.467°
True anomaly176.59138°
Mean anomaly176.1348°
Eccentric anomaly176.36656°
Mean motion3.45882 °/min
BSTAR0.00028271
Orbital period104.08 mins
Loading maneuver chart data...

ATLAS CENTAUR 2 DEB Visibility forecast

Observer location: undefined°, undefined

Span
Click to sort rows by Start time (UTC) header in descending order
Start Az.
Max El. time (UTC)
Max El. Az.
Max El.
End time (UTC)
End Az.
11 mins2025-02-07 15:13:45.539Z203.318° SW2025-02-07 15:19:45.539Z156.401° SSE21.73°2025-02-07 15:24:45.539Z113.469° SE
12 mins2025-02-07 17:03:45.539Z231.055° WSW2025-02-07 17:09:45.539Z175.606° S30.465°2025-02-07 17:15:45.539Z110.4° ESE
10 mins2025-02-07 18:54:45.539Z246.46° WSW2025-02-07 18:59:45.539Z196.343° SSW29.672°2025-02-07 19:04:45.539Z128.635° SE
6 mins2025-02-07 20:46:45.539Z239.314° WSW2025-02-07 20:49:45.539Z205.776° SW17.989°2025-02-07 20:52:45.539Z167.294° S
|